Regional Weather Roundup
Issued by NWS Upton, NY

Current Version | Previous Version | Text Only | Print | Product List | Glossary On
Versions: 1 2 3 4 5 6 7 8 9 10 11 12 13 14 15 16 17 18 19 20 21 22 23 24 25 26 27 28 29 30 31 32 33 34 35 36 37 38 39 40 41 42 43 44 45 46 47 48 49 50
000
ASUS41 KOKX 251708
RWROKX

REGIONAL WEATHER ROUNDUP
NATIONAL WEATHER SERVICE NEW YORK NY
100 PM EDT SAT MAR 25 2017

NOTE: "FAIR" INDICATES FEW OR NO CLOUDS BELOW 12,000 FEET WITH NO
SIGNIFICANT WEATHER AND/OR OBSTRUCTIONS TO VISIBILITY.

NYZ071-072-176-178-NJZ106-104-251800-
NEW YORK CITY METRO AREA

CITY           SKY/WX    TMP DP  RH WIND       PRES   REMARKS
Central Park   CLOUDY    61  38  42 E6        30.19S
Wall St Helipt PTSUNNY   55  39  54 E3        30.18F
LaGuardia APRT CLOUDY    55  38  52 E9        30.17S
Kennedy INTL   CLOUDY    58  42  55 S6        30.18R
Breezy Point     N/A     54 N/A N/A N2          N/A
Newark/Liberty CLOUDY    60  40  47 E6        30.17R
Teterboro      MOSUNNY   58  41  53 N8        30.18R
$$

NYZ177-179-078>081-251800-
LONG ISLAND NEW YORK

CITY           SKY/WX    TMP DP  RH WIND       PRES   REMARKS
Jones Beach      N/A     54 N/A N/A SE2         N/A
Matinecock PT    N/A     50 N/A N/A E9          N/A
Farmingdale    MOSUNNY   58  40  51 NE6       30.17R
MacArthur/ISP  CLOUDY    58  41  53 S5        30.18R
Shirley        PTSUNNY   55  39  54 VRB5      30.20R
Westhampton    PTSUNNY   53  36  52 NE9       30.21R
East Hampton   PTSUNNY   48  39  69 E10G17    30.18R
Montauk        NOT AVBL
$$

NYZ052-065-067-251800-
HUDSON VALLEY

CITY           SKY/WX    TMP DP  RH WIND       PRES   REMARKS
White Plains   CLOUDY    56  41  57 VRB3      30.18R
Newburgh       CLOUDY    43  39  87 NE7       30.22R
Montgomery     CLOUDY    43  36  76 N14       30.21R
Poughkeepsie   CLOUDY    40  35  83 N12       30.23R WCI  33
Albany         LGT RAIN  37  31  78 N10       30.30R WCI  30
$$

NJZ001-105-106-008-010-013-015-019>022-104-251800-
NEW JERSEY

CITY           SKY/WX    TMP DP  RH WIND       PRES   REMARKS
Newark/Liberty CLOUDY    60  40  47 E6        30.17R
Teterboro      MOSUNNY   58  41  53 N8        30.18R
Caldwell       CLOUDY    59  41  51 E5        30.19R
Somerville     MOSUNNY   61  44  53 CALM      30.15R
Linden           N/A     61  40  46 CALM      30.17R
Sussex         LGT RAIN  47  38  71 NE9       30.21R
Andover          N/A     50  39  66 VRB3      30.20R
Trenton        CLOUDY    62  48  60 CALM      30.16S
Millville      SUNNY     75  53  46 W10       30.15F
Atlantic City  SUNNY     78  50  37 SW7       30.14F
Wrightstown    MOSUNNY   72  51  47 NW8       30.13S
Toms River     PTSUNNY   74  52  46 W7        30.15S
Belmar         CLOUDY    64  49  57 NW7       30.17S
$$

PAZ047>061-062-071-251800-
EASTERN PENNSYLVANIA

CITY           SKY/WX    TMP DP  RH WIND       PRES   REMARKS
Philadelphia   CLOUDY    70  49  47 W10       30.16S
Allentown      PTSUNNY   67  46  47 SW7       30.15S
Scranton       CLOUDY    53  43  68 N3        30.18R
$$

CTZ002-004>006-009-010-012-RIZ004-006-007-MAZ004-011-015-251800-
SOUTHERN NEW ENGLAND
 IN CT

CITY           SKY/WX    TMP DP  RH WIND       PRES   REMARKS
Bradley INTL   DRIZZLE   42  37  82 N12       30.24R FOG
Hartford       CLOUDY    46  37  71 N9        30.23R
Danbury        CLOUDY    51  39  63 N7        30.20R
Wtrbury/Oxford CLOUDY    46  34  61 NE12      30.20S
Bridgeport     CLOUDY    55  39  54 N6        30.21R
Meriden        CLOUDY    50  36  58 N8        30.21R
New Haven      CLOUDY    53  38  56 N10       30.18S
Chester        NOT AVBL
Groton         CLOUDY    54  39  57 N9        30.20R
Wilimantic     CLOUDY    48  37  65 N8        30.22R

 IN RI

CITY           SKY/WX    TMP DP  RH WIND       PRES   REMARKS
Providence     CLOUDY    46  36  68 NE10      30.22S
Block Island   CLOUDY    44  39  82 E12       30.19F
Westerly       PTSUNNY   54  39  57 N6        30.20R
 IN MA

CITY           SKY/WX    TMP DP  RH WIND       PRES   REMARKS
Boston         CLOUDY    39  35  86 NE8       30.27R WCI  33
Worcester      CLOUDY    37  32  82 NE6       30.23R WCI  32
Westfield      CLOUDY    41  35  79 N12       30.24R
Provincetown   CLOUDY    41  35  79 NE9       30.27R
Nantucket      CLOUDY    44  36  73 NE16      30.20F
$$

ANZ330-335-338-340-345-350-353-355-251800-
COASTAL MARINE OBSERVATIONS


STATION/POSITION TIME  SKY/WX   TEMP    WIND        PRES    VSBY  WAVE
                                AIR SEA DIR/SP/G                  HT/PER
                 (UTC)          (F)     (DEG/KT/KT) (MB)    (MI)  (FT/S)
NY HARB ENTRANCE 1550            49 42  130/  2/  4 1021.6          4/ 7
20 S FIRE ISLAND 1650            44 41  180/  2/  4 1021.8          5/ 8
GREAT SOUTH BAY  NOT AVBL
23 SSW MONTAUK P 1650            44 43              1022.9          6/ 8
15 E BARNEGAT LI 1630               42                N/A           5/ 7
HUDSON CANYON    1650            47 45  250/  4/  6 1022.1          7/ 8
KINGS POINT      1648            53 38              1021.4
EXECUTION ROCKS  NOT AVBL
CENTRAL LI SOUND 1630            42      10/  2/  4   N/A           0
EASTERN LI SOUND NOT AVBL
ROBBINS REEF     1648            57      40/  6/  6 1021.9
$$


>>>>>>>>>>>>>>>>>>>>>>>>>>>> KEY <<<<<<<<<<<<<<<<<<<<<<<<<<<
>                                                          <
>     SKY/WX - Sky Condition/Present Weather               <
>     TMP    - Temperature in Fahrenheit                   <
>     DP     - Dew Point in Fahrenheit                     <
>     RH     - Relative Humidity in Percent                <
>     WIND   - Direction (from) and Speed in MPH           <
>     PRES   - Mean Sea Level Pressure (inches of Hg)      <
>     WCI    - Wind Chill Index                            <
>     VSB    - VISIBILITY IN MILES                         <
>     HX     - HEAT INDEX                                  <
>     TC     - TEMPERATURE IN CELSIUS                      <
>     VRB    - VARIABLE WIND DIRECTION                     <
>                                                          <
>>>>>>>>>>>>>>>>>>>>>>>>>>>> KEY <<<<<<<<<<<<<<<<<<<<<<<<<<<



USA.gov is the U.S. government's official web portal to all federal, state and local government web resources and services.